[[{"header":{"parameterUnit":"m.s-1","parameterCategory":1,"la1":30.2991,"la2":30.254,"lo1":-89.0895,"lo2":-89.0444,"dy":0.0017,"dx":0.0017,"nx":28,"ny":28,"refTime":"2026-02-05T09:00:00:Z","depth":0,"parameterNumber":2,"parameterNumberName":"U-component_of_WINDS"},"data":[0,0,0,0,0,0,0,0,0,0,0,0,0,0,0,0,0,0,0,0,0,0,0,0,0,0,0,0,0,0,0,0,0,0,0,0,0,0,0,0,0,0,0,0,0,0,0,0,0,0,0,0,0,0,0,0,0,0,3.9344,3.9344,0,3.9385,3.9385,3.9386,3.9322,3.932,3.9317,3.9315,3.9361,3.9364,3.9368,0,0,0,0,0,0,0,0,0,0,0,0,0,3.9215,3.9218,3.9343,3.9344,3.9345,3.9385,3.9385,3.9386,3.9322,3.9319,3.9317,3.9314,3.936,3.9364,3.9368,0,0,0,0,0,0,0,0,0,0,0,0,0,3.9265,3.9219,3.9343,3.9318,3.9316,3.9384,3.9385,3.9386,3.9323,3.9319,3.9316,3.9313,3.9359,3.9364,3.9369,3.9466,0,0,3.9384,3.9386,0,0,0,0,0,0,0,0,3.9262,3.927,3.9321,3.9319,3.9317,3.9345,3.9357,3.9413,3.9324,3.932,3.9315,3.9311,3.9359,3.9363,3.9379,3.9468,3.947,3.9384,3.9387,3.9389,3.9391,0,0,0,0,0,0,0,3.9259,3.9268,3.936,3.9322,3.932,3.9306,3.9309,3.9367,3.9358,3.932,3.9316,3.9321,3.9357,3.9374,3.9379,3.9471,3.9384,3.9388,3.9391,3.9393,3.9645,3.9649,0,0,0,0,0,0,3.9258,3.9265,3.9359,3.9361,3.9281,3.9311,3.9314,3.9339,3.9357,3.9356,3.9324,3.9318,3.9367,3.9373,3.9381,3.9498,3.9389,3.9394,3.9397,3.9642,3.9646,3.965,0,0,0,0,0,0,3.9256,3.9267,3.9357,3.9312,3.9322,3.9316,3.9345,3.9342,3.9359,3.936,3.9358,3.9343,3.9365,3.9374,3.9446,3.9498,3.9396,3.9401,3.9637,3.9643,3.9648,3.9732,0,0,0,0,0,0,3.9252,3.9266,3.9302,3.9313,3.9325,3.942,3.9348,3.9345,3.9367,3.9359,3.9377,3.9376,3.9363,3.9439,3.9451,3.9503,3.9404,3.9633,3.964,3.9647,3.9724,3.9739,3.9752,0,0,0,0,0,3.9248,3.9324,3.9304,3.9316,3.9369,3.9423,3.943,3.9411,3.9371,3.9408,3.9409,3.9376,3.9491,3.9446,3.9459,3.9514,3.9629,3.9638,3.9646,3.9718,3.9736,3.9752,0,0,0,0,0,0,3.9319,3.9325,3.9303,3.9384,3.9404,3.9412,3.9457,3.9431,3.9463,3.9455,3.9432,3.9437,3.9514,3.9521,3.9472,3.9611,3.9553,3.9565,3.9604,3.9621,3.9635,3.9632,3.9408,0,0,0,0,0,3.9344,3.9386,3.9389,3.9461,3.9472,3.9463,3.9486,3.947,3.949,3.9498,3.9504,3.9526,3.9567,3.9594,3.9632,3.9725,3.9729,3.9769,3.9784,3.9795,3.9806,3.9858,3.9877,3.9678,3.9678,3.9678,0,0,3.9397,3.9405,3.9433,3.9476,3.9489,3.9535,3.9471,3.9521,3.9556,3.9506,3.9574,3.958,3.9603,3.9687,3.9724,3.9695,3.9862,3.9806,3.9815,3.9819,3.9869,3.9888,3.9905,3.9684,3.9683,3.9682,0,0,3.9517,3.9526,3.9588,3.9603,3.9623,3.9617,3.9633,3.9646,3.9647,3.9716,3.968,3.9722,3.9792,3.9811,3.9829,3.9959,3.9931,3.9972,4.0046,4.0098,4.0114,4.0127,4.0176,4.0193,3.9982,3.9983,3.9983,0,3.958,3.9646,3.9624,3.9677,3.9699,3.9655,3.972,3.9735,3.9768,3.9784,3.9751,3.9841,3.9853,3.9942,3.9974,3.9989,4.0008,3.997,4.0113,4.0127,4.0139,4.0185,4.0203,3.9988,3.9987,3.9987,3.9986,0,3.9724,3.9771,3.9819,3.9851,3.9877,3.9936,3.9925,3.9955,3.9938,3.9936,4.0008,4.0021,4.0062,4.0082,4.0065,4.017,4.0151,4.0116,4.0058,4.0164,4.0207,4.0224,3.9995,3.9993,3.9992,3.999,0,0,3.9888,3.9909,3.9927,3.9942,3.9963,4.0,4.0058,4.0097,4.0124,4.0149,4.0199,4.0261,4.0229,4.025,4.0236,4.0281,4.0387,4.0241,4.0241,4.0269,4.0505,4.0532,4.0553,4.0368,4.0371,4.0373,4.0504,0,4.0009,4.0108,4.0091,4.0188,4.0233,4.0194,4.0245,4.0265,4.0265,4.0305,4.0306,4.0351,4.0305,4.0318,4.0361,4.0364,4.0434,4.0355,4.0416,4.0419,4.0413,4.0575,4.0603,4.0726,4.052,4.0523,4.0525,0,4.0162,4.0193,4.0294,4.031,4.0328,4.0374,4.0411,4.0448,4.0471,4.0468,4.0494,4.0472,4.0533,4.0473,4.0558,4.0505,4.0529,4.0535,4.054,4.0545,4.0479,4.0587,4.0764,4.0783,4.0551,4.0549,4.0547,0,4.0275,4.0341,4.0411,4.0425,4.0445,4.0479,4.0489,4.0508,4.0534,4.0566,4.0583,4.0622,4.0644,4.0676,4.0667,4.0624,4.0755,4.0694,4.0757,4.0758,4.0787,4.0785,4.0972,4.0801,4.08,4.08,4.08,0,4.0412,4.0476,4.0462,4.0505,4.0577,4.0558,4.063,4.0636,4.0654,4.0699,4.0668,4.0712,4.0696,4.074,4.0733,4.0806,4.0816,4.0817,4.0815,4.0821,4.0821,4.0837,4.0829,4.0805,4.0804,4.0803,4.0802,0,4.055,4.0542,4.0616,4.063,4.0635,4.0688,4.07,4.0742,4.0741,4.0799,4.0811,4.0811,4.0861,4.0854,4.091,4.0905,4.0997,4.0984,4.0989,4.0987,4.1051,4.1046,4.1255,4.1283,4.1092,4.1094,4.1096,0,4.0638,4.0687,4.0706,4.0733,4.0746,4.0791,4.0817,4.0802,4.0831,4.0862,4.0901,4.0947,4.0984,4.1066,4.1072,4.1115,4.1104,4.1175,4.111,4.1116,4.1108,4.1105,4.1111,4.1188,4.119,4.1191,4.1193,0,4.0797,4.0791,4.0829,4.0868,4.09,4.0929,4.0956,4.0981,4.0968,4.1003,4.1053,4.1082,4.1139,4.1187,4.1229,4.1241,4.1217,4.1213,4.123,4.1237,4.1239,4.1241,4.1025,4.1208,4.1207,4.1206,4.1205,4.1204,4.0914,4.0956,4.0977,4.1021,4.104,4.1066,4.1106,4.1111,4.1152,4.1197,4.1186,4.1244,4.1268,4.1321,4.1338,4.1385,4.1359,4.1384,4.139,4.1397,4.1405,4.1231,4.1392,4.1392,4.1391,4.1391,4.1391,0,4.1072,4.1084,4.1125,4.1163,4.1199,4.1171,4.12,4.1233,4.1284,4.1308,4.1345,4.1405,4.1452,4.1462,4.1508,4.1543,4.1533,4.1556,4.1554,4.1558,4.1424,4.1406,4.1564,4.1564,4.1564,4.1564,4.1563,4.1563,4.1159,4.123,4.1227,4.1308,4.132,4.1375,4.1395,4.142,4.1439,4.1507,4.1546,4.1552,4.1571,4.1619,4.1662,4.1664,4.1683,4.1711,4.1709,4.1584,4.1567,4.155,4.1533,4.1715,4.1715,4.1839,4.184,4.1841]},{"header":{"parameterUnit":"m.s-1","parameterCategory":1,"la1":30.2991,"la2":30.254,"lo1":-89.0895,"lo2":-89.0444,"dy":0.0017,"dx":0.0017,"nx":28,"ny":28,"refTime":"2026-02-05T09:00:00:Z","depth":0,"parameterNumber":3,"parameterNumberName":"V-component_of_WINDS"},"data":[0,0,0,0,0,0,0,0,0,0,0,0,0,0,0,0,0,0,0,0,0,0,0,0,0,0,0,0,0,0,0,0,0,0,0,0,0,0,0,0,0,0,0,0,0,0,0,0,0,0,0,0,0,0,0,0,0,0,-0.6344,-0.6343,0,-0.6319,-0.6319,-0.6318,-0.6323,-0.6324,-0.6324,-0.6325,-0.6298,-0.6297,-0.6296,0,0,0,0,0,0,0,0,0,0,0,0,0,-0.6395,-0.6394,-0.6344,-0.6343,-0.6343,-0.6319,-0.6319,-0.6318,-0.6323,-0.6324,-0.6324,-0.6325,-0.6299,-0.6297,-0.6296,0,0,0,0,0,0,0,0,0,0,0,0,0,-0.6371,-0.6393,-0.6344,-0.6343,-0.6342,-0.6319,-0.6318,-0.6318,-0.6323,-0.6324,-0.6324,-0.6325,-0.6299,-0.6297,-0.6296,-0.6272,0,0,-0.6291,-0.629,0,0,0,0,0,0,0,0,-0.6373,-0.637,-0.6343,-0.6343,-0.6342,-0.6325,-0.6327,-0.6302,-0.6323,-0.633,-0.6325,-0.6325,-0.6306,-0.6304,-0.6298,-0.627,-0.6269,-0.629,-0.6289,-0.6289,-0.6288,0,0,0,0,0,0,0,-0.6374,-0.6371,-0.6334,-0.6343,-0.6342,-0.6343,-0.6341,-0.6322,-0.6315,-0.633,-0.633,-0.6327,-0.6306,-0.63,-0.6297,-0.6269,-0.6291,-0.6289,-0.6288,-0.6287,-0.6221,-0.622,0,0,0,0,0,0,-0.6376,-0.6372,-0.6335,-0.6333,-0.6359,-0.6342,-0.6339,-0.633,-0.6315,-0.6313,-0.6326,-0.6327,-0.6302,-0.6299,-0.6297,-0.6267,-0.6289,-0.6287,-0.6286,-0.6222,-0.6221,-0.622,0,0,0,0,0,0,-0.6377,-0.6373,-0.6336,-0.6353,-0.6348,-0.634,-0.633,-0.6329,-0.6322,-0.6313,-0.6311,-0.6321,-0.6303,-0.6299,-0.6278,-0.6267,-0.6286,-0.6285,-0.6222,-0.6221,-0.622,-0.6209,0,0,0,0,0,0,-0.6379,-0.6373,-0.6364,-0.6352,-0.6347,-0.6317,-0.6329,-0.6328,-0.6319,-0.632,-0.6307,-0.6306,-0.6303,-0.628,-0.6276,-0.6265,-0.6284,-0.6223,-0.6222,-0.6221,-0.621,-0.6208,-0.6205,0,0,0,0,0,-0.6381,-0.6362,-0.6364,-0.6359,-0.6335,-0.6317,-0.6314,-0.6311,-0.6318,-0.6309,-0.6303,-0.6306,-0.6269,-0.6278,-0.6274,-0.6261,-0.6224,-0.6222,-0.6221,-0.6211,-0.6208,-0.6205,0,0,0,0,0,0,-0.6372,-0.636,-0.6362,-0.6339,-0.6329,-0.6318,-0.6306,-0.6308,-0.6295,-0.6296,-0.6294,-0.6291,-0.6269,-0.6263,-0.6274,-0.6237,-0.6247,-0.6245,-0.6242,-0.6239,-0.6236,-0.6238,-0.6282,0,0,0,0,0,-0.6368,-0.6354,-0.6344,-0.6324,-0.6319,-0.6313,-0.6305,-0.6304,-0.6294,-0.6289,-0.6282,-0.6271,-0.6257,-0.6248,-0.6234,-0.621,-0.6207,-0.6199,-0.6197,-0.6195,-0.6192,-0.6179,-0.6175,-0.6214,-0.6214,-0.6214,0,0,-0.6358,-0.635,-0.6341,-0.6322,-0.6314,-0.63,-0.631,-0.6294,-0.6283,-0.6287,-0.6266,-0.6261,-0.6249,-0.6226,-0.6216,-0.622,-0.6181,-0.6192,-0.6191,-0.6189,-0.6177,-0.6173,-0.617,-0.6213,-0.6213,-0.6213,0,0,-0.6332,-0.6325,-0.6308,-0.63,-0.6288,-0.6285,-0.628,-0.6269,-0.6265,-0.6245,-0.6248,-0.6235,-0.6211,-0.6202,-0.6195,-0.6167,-0.6169,-0.6163,-0.6149,-0.6137,-0.6133,-0.6131,-0.6121,-0.6117,-0.616,-0.616,-0.616,0,-0.6322,-0.63,-0.6299,-0.6283,-0.6275,-0.6278,-0.626,-0.6253,-0.6237,-0.6231,-0.6237,-0.6207,-0.6199,-0.6174,-0.6168,-0.6162,-0.6157,-0.6164,-0.6134,-0.6131,-0.6129,-0.6119,-0.6115,-0.616,-0.616,-0.616,-0.616,0,-0.6287,-0.6273,-0.626,-0.6245,-0.6236,-0.6219,-0.6215,-0.6206,-0.6206,-0.6202,-0.6181,-0.6172,-0.6157,-0.6151,-0.6151,-0.6127,-0.613,-0.6135,-0.6145,-0.6124,-0.6115,-0.6112,-0.6159,-0.6159,-0.6159,-0.6159,0,0,-0.6255,-0.624,-0.6236,-0.6229,-0.6217,-0.6205,-0.6189,-0.6174,-0.6166,-0.6155,-0.6142,-0.6122,-0.6126,-0.6118,-0.6117,-0.6106,-0.6084,-0.6112,-0.6112,-0.6107,-0.6057,-0.6053,-0.6049,-0.6086,-0.6085,-0.6085,-0.6058,0,-0.6228,-0.62,-0.6198,-0.6172,-0.6158,-0.6162,-0.6148,-0.6139,-0.6134,-0.6122,-0.6117,-0.6103,-0.6111,-0.6106,-0.6095,-0.6089,-0.6074,-0.6091,-0.6073,-0.6072,-0.6075,-0.6044,-0.6039,-0.6014,-0.6054,-0.6054,-0.6053,0,-0.6193,-0.6182,-0.6154,-0.6144,-0.6139,-0.6126,-0.6113,-0.6101,-0.6091,-0.6089,-0.6079,-0.608,-0.6064,-0.6075,-0.6052,-0.6063,-0.6056,-0.6052,-0.6051,-0.6049,-0.6061,-0.604,-0.6006,-0.6002,-0.6048,-0.6048,-0.6049,0,-0.6172,-0.615,-0.6131,-0.6125,-0.6113,-0.6104,-0.6098,-0.6089,-0.608,-0.6069,-0.6064,-0.605,-0.6043,-0.6033,-0.603,-0.6038,-0.6007,-0.6018,-0.6004,-0.6004,-0.5997,-0.5997,-0.5961,-0.5993,-0.5993,-0.5993,-0.5993,0,-0.6142,-0.6125,-0.6121,-0.6109,-0.609,-0.6089,-0.607,-0.6066,-0.6057,-0.6045,-0.6047,-0.6035,-0.6032,-0.602,-0.6017,-0.5999,-0.5995,-0.5993,-0.5992,-0.5992,-0.5993,-0.5987,-0.5988,-0.5992,-0.5992,-0.5993,-0.5993,0,-0.6115,-0.6111,-0.6091,-0.6081,-0.6079,-0.6065,-0.6057,-0.6045,-0.6042,-0.6026,-0.6022,-0.6016,-0.6002,-0.5998,-0.5981,-0.5979,-0.5957,-0.5958,-0.596,-0.596,-0.5947,-0.5948,-0.5905,-0.5899,-0.5936,-0.5936,-0.5935,0,-0.6096,-0.6083,-0.6072,-0.6064,-0.6058,-0.6045,-0.6036,-0.6035,-0.6026,-0.6014,-0.6004,-0.599,-0.5978,-0.5955,-0.5949,-0.5936,-0.5936,-0.5922,-0.5934,-0.5935,-0.5936,-0.5936,-0.5935,-0.592,-0.5919,-0.5919,-0.5919,0,-0.6062,-0.6061,-0.6049,-0.6036,-0.6026,-0.6016,-0.6007,-0.6,-0.5997,-0.5987,-0.5972,-0.5963,-0.5946,-0.5932,-0.5918,-0.5913,-0.5915,-0.5915,-0.5911,-0.5911,-0.5912,-0.5911,-0.5954,-0.5916,-0.5916,-0.5916,-0.5917,-0.5917,-0.6038,-0.6026,-0.6017,-0.6004,-0.5997,-0.5988,-0.5977,-0.5972,-0.596,-0.5946,-0.5946,-0.593,-0.592,-0.5903,-0.5897,-0.5884,-0.5888,-0.5883,-0.5881,-0.588,-0.5878,-0.5915,-0.5882,-0.5882,-0.5882,-0.5882,-0.5882,0,-0.6004,-0.5998,-0.5986,-0.5973,-0.5962,-0.5966,-0.5956,-0.5947,-0.5932,-0.5924,-0.5913,-0.5896,-0.5882,-0.5876,-0.5863,-0.5854,-0.5855,-0.585,-0.5851,-0.5849,-0.5876,-0.588,-0.585,-0.585,-0.585,-0.585,-0.585,-0.585,-0.5985,-0.5966,-0.5964,-0.5942,-0.5937,-0.5921,-0.5915,-0.5907,-0.59,-0.5881,-0.587,-0.5866,-0.5858,-0.5845,-0.5832,-0.5831,-0.5826,-0.5821,-0.582,-0.5844,-0.5847,-0.585,-0.5855,-0.582,-0.582,-0.5795,-0.5794,-0.5794]}]]